星链-32483 (STARLINK-32483)

导读 | 豆包AI

STARLINK-32483是美国SpaceX公司星链(Starlink)项目的卫星,于2024年11月7日发射升空,属于星链低轨卫星星座组网的一部分。星链项目计划在近地轨道部署数万颗卫星,旨在为全球偏远、网络欠发达地区提供低延迟、高速的宽带互联网服务,目前已在六十多个国家和地区落地服务,STARLINK-32483的入轨进一步扩充了星链星座的服务覆盖能力。

基本信息
目录编号:
61856
目录名称:
STARLINK-32483
国际标识:
2024-202M
轨道中心:
EARTH
卫星名称:
星链-32483
卫星全名:
星链-32483 (STARLINK-32483)
卫星状态:
在轨 (已飞行493 天)
发射日期:
2024-11-07 UTC
国别 :
美国 (US)
星等 :
--
轨道信息
数据来源 国际轨道数据
星历时间: 2026-03-14T18:15:33+0800
23小时前
查看轨道信息
半长轴: 6861.17km
偏心率: 0.0000975
轨道倾角: 43.001°
近地点辐角 286.093°
升交点赤经 211.108°
平近点角 73.981°
近地点: 482.364km
远地点: 483.702km
周期: 94.266分钟
每日圈数: 15.275856
详细信息
固有亮度:
5
最大亮度:
2.5
卫星平台:
Starlink V1.0
覆盖范围:
全球
运营商:
太空探索技术公司
运营商所在国:
美国
制造商(研发单位):
太空探索技术公司
制造商所在国:
美国
使用方式:
暂无
卫星简介
Starlink 计划是 SpaceX 推出的全球卫星互联网项目,通过发射低轨道卫星,为全球尤其是偏远地区提供高速、低延迟的互联网服务。自 2019 年起,Starlink 已部署数千颗卫星,旨在缩小全球数字鸿沟,推动互联网普及。该项目还为军事、航空等行业提供通信支持,带来广泛经济效益。
2D轨道图
3D轨道图
轨道高度分析图
轨道倾角分析图
轨道综合分析图
查看轨道综合分析图